Flag for Pakistan Weather past 2 weeks in Sukkur, Sindh, Pakistan

Now
81 °F

Haze.


Feels Like: 82 °F
Forecast: 86 / 111 °F
Wind: No wind

Location: Sukkur

Current Time: May 5, 2015 at 5:20:39 AM

Latest Report: May 5, 2015 at 3:00 AM


Visibility: 2 mi

Pressure: 29.65 "Hg

Humidity: 54%

Dew point: 63 °F

Location of SukkurLocation

Historic Weather in Sukkur — Graph

°F

Sukkur temperature yesterday

Maximum temperature yesterday: 113 °F (at 4:00 PM)
Minimum temperature yesterday: 79 °F (at 6:00 AM)
Average temperature yesterday: 95 °F

Past Weeks' High & Low Weather Summary

 TemperatureHumidityPressure
High113 °F (Apr 24, 4:00 PM)79% (Apr 26, 6:00 AM)29.77 "Hg (Apr 26, 6:00 AM)
Low73 °F (Apr 24, 7:00 AM)8% (Apr 30, 3:00 PM)29.47 "Hg (Apr 20, 5:00 AM)
Average95 °F39%29.63 "Hg
* Reported Apr 20 5:00 AM — May 5 3:00 AM, Sukkur, Weather by CustomWeather, © 2015

Note: Actual official high and low records may vary slightly from our data, if they occured in-between our weather recording intervals... More about our weather records

Advertising

Sukkur weather history for previous 24 hours

 ConditionsComfort  
Time TempWeatherWind HumidityBarometerVisibility
3:00 AM
Tue, May 5
81 °FHaze.No wind54%29.65 "Hg2 mi
1:00 AM84 °FHaze.No wind51%29.71 "Hg2 mi
12:00 AM86 °FHaze.No wind52%29.71 "Hg2 mi
11:00 PM
Mon, May 4
88 °FHaze.No wind49%29.71 "Hg2 mi
10:00 PM90 °FHaze.No wind43%29.68 "Hg2 mi
9:00 PM93 °FHaze.No wind41%29.68 "Hg2 mi
8:00 PM97 °FHaze.5 mph34%29.65 "Hg2 mi
7:00 PM102 °FHaze.5 mph29%29.62 "Hg2 mi
6:00 PM109 °FHaze.7 mph18%29.62 "Hg2 mi
5:00 PM111 °FHaze.7 mph20%29.65 "Hg3 mi
4:00 PM113 °FHaze.6 mph15%29.65 "Hg3 mi
3:00 PM111 °FHaze.7 mph20%29.65 "Hg3 mi
2:00 PM109 °FHaze.No wind22%29.68 "Hg3 mi
1:00 PM106 °FHaze.No wind23%29.71 "Hg3 mi
12:00 PM102 °FHaze.7 mph26%29.71 "Hg3 mi
11:00 AM100 °FHaze.7 mph27%29.74 "Hg3 mi
10:00 AM95 °FHaze.9 mph32%29.74 "Hg2 mi
9:00 AM91 °FHaze.9 mph34%29.71 "Hg2 mi
8:00 AM86 °FHaze.7 mph43%29.71 "Hg2 mi
7:00 AM81 °FHaze.No wind54%29.65 "Hg2 mi
6:00 AM79 °FHaze.5 mph58%29.65 "Hg2 mi
Weather by CustomWeather, © 2015

See weather overviewHow to use our weather pages